Fresno, CA

2:36 AM PST on November 25, 2017 (GMT -0800)
Fresno Yosemite International

Weather History for KFAT - May, 2014

Change the Weather History Date:

Saturday, May 31, 2014

  Actual Average Record
Temperature  
Mean Temperature 75 °F 74 °F  
Max Temperature 91 °F 88 °F 110 °F (1910)
Min Temperature 58 °F 59 °F 46 °F (1923)
Degree Days  
Heating Degree Days 0    
Month to date heating degree days 3  
Since 1 July heating degree days 1504  
Cooling Degree Days 10    
Month to date cooling degree days 299  
Year to date cooling degree days 443  
Growing Degree Days 24 (Base 50)    
Moisture  
Dew Point 38 °F    
Average Humidity 35    
Maximum Humidity 62    
Minimum Humidity 8    
Precipitation  
Precipitation 0.00 in 0.01 in 0.15 in (1961)
Month to date precipitation 0.04 0.43  
Year to date precipitation 4.08 7.63  
Since 1 July precipitation 4.81  
Snow  
Snow 0.00 in - - ()
Month to date snowfall 0.0  
Since 1 July snowfall 0.0  
Snow Depth 0.00 in    
Sea Level Pressure  
Sea Level Pressure 29.87 in    
Wind  
Wind Speed 7 mph (NW)    
Max Wind Speed 14 mph    
Max Gust Speed 19 mph    
Visibility 10 miles    
Events      
T = Trace of Precipitation, MM = Missing Value Source: NWS Daily Summary

Daily Weather History Graph

Daily Weather History Graph

Search for Another Location

Airport or City:

Trip Planner

Search our weather history database for the weather conditions in past years. The results will help you decide how hot, cold, wet, or windy it might be!

Date:

Astronomy

May. 31, 2014 Rise Set
Actual Time 5:41 AM PDT 8:11 PM PDT
Civil Twilight 5:11 AM PDT 8:41 PM PDT
Nautical Twilight 4:34 AM PDT 9:19 PM PDT
Astronomical Twilight 3:53 AM PDT 10:00 PM PDT
Moon 8:21 AM PDT (5/31) 10:35 PM PDT (5/31)
Length of Visible Light 15h 30m
Length of Day
14h 30m
Waxing Crescent, 9% of the Moon is Illuminated
May 31
Waxing Crescent
Jun 5
First Quarter
Jun 12
Full
Jun 19
Last Quarter
Jun 27
New

Hourly Weather History & Observations

Time (PDT) Temp. Dew Point Humidity Pressure Visibility Wind Dir Wind Speed Gust Speed Precip Events Conditions
12:53 AM 69.1 °F 41.0 °F 36% 29.86 in 10.0 mi NW 15.0 mph - N/A   Scattered Clouds
1:53 AM 66.0 °F 42.1 °F 42% 29.86 in 10.0 mi NW 10.4 mph - N/A   Scattered Clouds
2:53 AM 64.0 °F 43.0 °F 46% 29.86 in 10.0 mi NW 12.7 mph - N/A   Scattered Clouds
3:53 AM 62.1 °F 44.1 °F 52% 29.86 in 10.0 mi NW 9.2 mph - N/A   Scattered Clouds
4:53 AM 60.1 °F 45.0 °F 57% 29.87 in 10.0 mi NW 9.2 mph - N/A   Partly Cloudy
5:53 AM 59.0 °F 46.0 °F 62% 29.88 in 10.0 mi NW 6.9 mph - N/A   Scattered Clouds
6:53 AM 59.0 °F 46.0 °F 62% 29.90 in 10.0 mi NW 6.9 mph - N/A   Scattered Clouds
7:53 AM 60.8 °F 44.6 °F 55% 29.93 in 10.0 mi NW 5.8 mph - N/A   Clear
8:53 AM 64.9 °F 45.0 °F 48% 29.93 in 10.0 mi Variable 4.6 mph - N/A   Clear
9:53 AM 69.1 °F 43.0 °F 39% 29.93 in 10.0 mi Calm Calm - N/A   Clear
10:53 AM 73.0 °F 39.9 °F 30% 29.92 in 10.0 mi Variable 4.6 mph - N/A   Clear
11:53 AM 78.1 °F 42.1 °F 28% 29.91 in 10.0 mi Calm Calm - N/A   Clear
12:53 PM 82.9 °F 39.0 °F 21% 29.90 in 10.0 mi NW 4.6 mph - N/A   Clear
1:53 PM 84.9 °F 35.1 °F 17% 29.89 in 10.0 mi NNW 5.8 mph - N/A   Clear
2:53 PM 88.0 °F 30.9 °F 13% 29.88 in 10.0 mi WNW 9.2 mph - N/A   Clear
3:53 PM 89.6 °F 32.0 °F 13% 29.86 in 10.0 mi WNW 4.6 mph - N/A   Partly Cloudy
4:53 PM 91.0 °F 21.0 °F 8% 29.84 in 10.0 mi WNW 8.1 mph - N/A   Partly Cloudy
5:53 PM 90.0 °F 21.9 °F 8% 29.83 in 10.0 mi NNW 9.2 mph - N/A   Partly Cloudy
6:53 PM 88.0 °F 28.9 °F 12% 29.82 in 10.0 mi NNW 10.4 mph - N/A   Partly Cloudy
7:53 PM 84.0 °F 30.0 °F 14% 29.83 in 10.0 mi WNW 10.4 mph - N/A   Clear
8:53 PM 80.1 °F 32.0 °F 17% 29.83 in 10.0 mi WNW 5.8 mph - N/A   Clear
9:53 PM 77.0 °F 36.0 °F 23% 29.85 in 10.0 mi NW 8.1 mph - N/A   Clear
10:53 PM 75.0 °F 37.9 °F 26% 29.86 in 10.0 mi NW 6.9 mph - N/A   Clear
11:53 PM 72.0 °F 43.0 °F 35% 29.86 in 10.0 mi NW 6.9 mph - N/A   Clear